Weather History for Chapel Hill, NC

Change the Weather History Date:

Sunday, March 23, 2014

  Actual Average Record
Temperature  
Mean Temperature 46 °F -  
Max Temperature 55 °F 62 °F 82 °F (1966)
Min Temperature 36 °F 35 °F 20 °F (1986)
Degree Days  
Heating Degree Days 20    
Moisture  
Dew Point 37 °F    
Average Humidity 81    
Maximum Humidity 97    
Minimum Humidity 42    
Precipitation  
Precipitation 0.14 in - - ()
Sea Level Pressure  
Sea Level Pressure 30.05 in    
Wind  
Wind Speed 4 mph (North)    
Max Wind Speed 12 mph    
Max Gust Speed 20 mph    
Visibility 5 miles    
Events Fog , Rain    
Averages and records for this station are not official NWS values.
T = Trace of Precipitation, MM = Missing Value Source: NWS Daily Summary

Daily Weather History Graph

Daily Weather History Graph

Search for Another Location

Airport:

Trip Planner

Search our weather history database for the weather conditions in past years. The results will help you decide how hot, cold, wet, or windy it might be!

Date:

Astronomy

Mar. 23, 2014 Rise Set
Actual Time 7:15 AM EDT 7:30 PM EDT
Civil Twilight 6:49 AM EDT 7:56 PM EDT
Nautical Twilight 6:20 AM EDT 8:26 PM EDT
Astronomical Twilight 5:49 AM EDT 8:56 PM EDT
Moon 1:36 AM EDT (3/23) 12:04 PM EDT (3/23)
Length of Visible Light 13h 06m
Length of Day
12h 15m
Waning Gibbous, 55% of the Moon is Illuminated
Mar 23
Waning Gibbous
Mar 23
Last Quarter
Mar 30
New
Apr 7
First Quarter
Apr 15
Full

Hourly Weather History & Observations

Time (EDT) Temp. Windchill Dew Point Humidity Pressure Visibility Wind Dir Wind Speed Gust Speed Precip Events Conditions
12:56 AM 55.0 °F - 41.0 °F 59% 29.96 in 10.0 mi Calm Calm - N/A   Clear
1:56 AM 52.0 °F - 42.1 °F 69% 29.96 in 10.0 mi West 4.6 mph - N/A   Clear
2:56 AM 52.0 °F - 41.0 °F 66% 29.95 in 10.0 mi West 4.6 mph - N/A   Clear
3:56 AM 52.0 °F - 41.0 °F 66% 29.94 in 10.0 mi WNW 3.5 mph - N/A   Clear
4:56 AM 48.0 °F - 41.0 °F 77% 29.93 in 10.0 mi Calm Calm - N/A   Clear
5:56 AM 54.0 °F - 36.0 °F 51% 29.94 in 10.0 mi North 4.6 mph - N/A   Clear
6:56 AM 52.0 °F - 34.0 °F 50% 29.96 in 10.0 mi NNE 8.1 mph - N/A   Clear
7:56 AM 52.0 °F - 33.1 °F 49% 29.98 in 10.0 mi NNE 10.4 mph - N/A   Clear
8:56 AM 53.1 °F - 33.1 °F 47% 29.99 in 10.0 mi NNE 11.5 mph - N/A   Clear
9:56 AM 54.0 °F - 32.0 °F 43% 30.00 in 10.0 mi ENE 11.5 mph 19.6 mph N/A   Clear
10:56 AM 55.0 °F - 32.0 °F 42% 30.02 in 10.0 mi NNE 8.1 mph - N/A   Mostly Cloudy
11:56 AM 53.1 °F - 32.0 °F 45% 30.03 in 10.0 mi North 6.9 mph - N/A   Overcast
12:56 PM 46.0 °F 42.5 °F 37.9 °F 73% 30.06 in 4.0 mi Variable 6.9 mph - 0.02 in Rain Light Rain
1:56 PM 45.0 °F 41.2 °F 39.9 °F 82% 30.02 in 3.0 mi NE 6.9 mph - 0.05 in Rain Light Rain
2:56 PM 45.0 °F 42.6 °F 41.0 °F 86% 30.01 in 5.0 mi NNE 4.6 mph - 0.05 in Rain Light Rain
3:13 PM 44.1 °F 39.5 °F 39.9 °F 85% 30.01 in 5.0 mi North 8.1 mph - 0.00 in Rain Light Rain
3:36 PM 44.1 °F 40.8 °F 39.0 °F 82% 30.02 in 6.0 mi Variable 5.8 mph - 0.00 in Rain Light Rain
3:56 PM 43.0 °F 38.8 °F 39.0 °F 86% 30.03 in 5.0 mi North 6.9 mph - 0.00 in Rain Light Rain
4:53 PM 42.8 °F 40.1 °F 39.2 °F 87% 30.02 in 5.0 mi Variable 4.6 mph - 0.02 in   Overcast
4:56 PM 42.1 °F 39.2 °F 39.0 °F 89% 30.03 in 5.0 mi Variable 4.6 mph - 0.02 in   Overcast
5:56 PM 43.0 °F 41.3 °F 39.0 °F 86% 30.02 in 7.0 mi ENE 3.5 mph - N/A   Overcast
6:09 PM 43.0 °F 41.3 °F 39.0 °F 86% 30.01 in 7.0 mi East 3.5 mph - N/A   Overcast
6:42 PM 44.1 °F - 39.9 °F 85% 30.03 in 7.0 mi Calm Calm - N/A   Overcast
6:56 PM 43.0 °F 41.3 °F 39.0 °F 86% 30.04 in 7.0 mi WNW 3.5 mph - N/A   Mostly Cloudy
7:10 PM 42.1 °F 40.2 °F 39.0 °F 89% 30.05 in 7.0 mi NW 3.5 mph - N/A   Scattered Clouds
7:38 PM 42.1 °F - 39.0 °F 89% 30.05 in 6.0 mi Calm Calm - N/A   Mostly Cloudy
7:56 PM 42.1 °F - 39.0 °F 89% 30.06 in 7.0 mi Calm Calm - N/A   Overcast
8:17 PM 41.0 °F - 37.9 °F 89% 30.07 in 7.0 mi Calm Calm - N/A   Scattered Clouds
8:34 PM 39.9 °F - 37.9 °F 93% 30.07 in 1.8 mi Calm Calm - N/A   Clear
8:44 PM 39.0 °F - 37.9 °F 96% 30.08 in 0.5 mi Calm Calm - N/A Fog Fog
8:49 PM 37.9 °F - 37.0 °F 97% 30.08 in 0.5 mi Calm Calm - N/A Fog Fog
8:56 PM 37.9 °F - 36.0 °F 93% 30.09 in 0.5 mi Calm Calm - N/A Fog Fog
9:02 PM 37.9 °F - 36.0 °F 93% 30.09 in 0.8 mi Calm Calm - N/A   Mist
9:08 PM 37.9 °F - 36.0 °F 93% 30.09 in 0.8 mi Calm Calm - N/A   Mist
9:15 PM 37.9 °F - 35.1 °F 89% 30.09 in 0.2 mi Calm Calm - N/A Fog Fog
9:33 PM 37.9 °F - 36.0 °F 93% 30.10 in 0.2 mi Calm Calm - N/A Fog Fog
9:49 PM 37.0 °F - 36.0 °F 96% 30.11 in 0.8 mi Calm Calm - N/A   Mist
9:56 PM 37.0 °F - 36.0 °F 96% 30.11 in 1.2 mi Calm Calm - N/A   Scattered Clouds
10:40 PM 36.0 °F - 35.1 °F 97% 30.13 in 0.5 mi Calm Calm - N/A Fog Fog
10:56 PM 36.0 °F - 34.0 °F 93% 30.14 in 0.8 mi Calm Calm - N/A   Mist
11:01 PM 36.0 °F - 34.0 °F 93% 30.14 in 1.2 mi Calm Calm - N/A   Partly Cloudy
11:10 PM 36.0 °F - 34.0 °F 93% 30.15 in 2.0 mi Calm Calm - N/A   Mostly Cloudy
11:23 PM 37.9 °F 34.4 °F 37.0 °F 97% 30.15 in 3.0 mi North 4.6 mph - N/A   Mostly Cloudy
11:54 PM 39.2 °F 37.0 °F 37.4 °F 93% 30.15 in 4.0 mi North 3.5 mph - N/A   Overcast
11:56 PM 39.0 °F 35.7 °F 37.9 °F 96% 30.15 in 4.0 mi North 4.6 mph - N/A   Overcast